FW4376 Weather Reports


time (UTC)temp
F
wind
direction
speed
knots
gust
knots
rain 1hr
in
rain 24hr
in
rain mn
in
humidity
%
barometer
mb
20260901233014 96 154 0.9 4.3 0.00 0.00 0.00 47 1012.6
20260901231514 97 135 0.9 4.3 0.00 0.00 0.00 48 1012.7
20260901230013 96 133 0.0 1.7 0.00 0.00 0.00 48 1012.7
20260901224513 96 127 0.0 4.3 0.00 0.00 0.00 48 1012.8
20260901223012 97 153 1.7 5.2 0.00 0.00 0.00 47 1012.9
20260901221511 97 155 1.7 7.0 0.00 0.00 0.00 47 1012.7
20260901220010 97 262 0.9 2.6 0.00 0.00 0.00 47 1012.9
20260901214528 97 123 0.9 5.2 0.00 0.00 0.00 46 1013.1
20260901213009 99 102 2.6 6.1 0.00 0.00 0.00 45 1013.1
20260901211509 100 96 0.9 4.3 0.00 0.00 0.00 44 1013.1
20260901210007 99 169 0.0 3.5 0.00 0.00 0.00 45 1013.3
20260901204504 99 211 0.9 4.3 0.00 0.00 0.00 44 1013.4
20260901203003 100 247 0.9 3.5 0.00 0.00 0.00 44 1013.5
20260901201500 98 271 0.9 4.3 0.00 0.00 0.00 45 1013.7
20260901200111 99 139 0.9 2.6 0.00 0.00 0.00 44 1013.7
20260901194558 98 133 0.9 15.6 0.00 0.00 0.00 45 1014.0
20260901193055 99 214 0.0 2.6 0.00 0.00 0.00 47 1014.2
20260901191554 99 33 0.9 3.5 0.00 0.00 0.00 48 1014.4
20260901190055 99 321 0.0 3.5 0.00 0.00 0.00 50 1014.7
20260901184559 99 122 0.9 4.3 0.00 0.00 0.00 48 1015.0
20260901183102 98 85 0.0 3.5 0.00 0.00 0.00 49 1015.3
20260901181544 96 304 0.9 7.0 0.00 0.00 0.00 52 1015.5
20260901180044 97 169 1.7 5.2 0.00 0.00 0.00 52 1015.7
20260901174542 97 127 0.0 4.3 0.00 0.00 0.00 52 1016.0
20260901173040 95 121 0.9 3.5 0.00 0.00 0.00 53 1016.3
20260901171536 95 234 0.0 3.5 0.00 0.00 0.00 56 1016.5
20260901170036 94 239 1.7 7.0 0.00 0.00 0.00 56 1016.6
20260901164537 95 99 1.7 5.2 0.00 0.00 0.00 56 1016.8
20260901163036 93 249 0.9 3.5 0.00 0.00 0.00 57 1016.9
20260901161533 95 245 1.7 4.3 0.00 0.00 0.00 56 1016.9
20260901160035 93 295 0.0 5.2 0.00 0.00 0.00 60 1016.9
20260901154539 93 94 0.9 4.3 0.00 0.00 0.00 60 1017.0
20260901153037 92 240 0.9 3.5 0.00 0.00 0.00 62 1017.0
20260901151524 91 260 1.7 5.2 0.00 0.00 0.00 61 1016.9
20260901150023 91 293 0.9 3.5 0.00 0.00 0.00 63 1016.9
20260901144522 89 244 0.9 4.3 0.00 0.00 0.00 66 1017.1
20260901143017 89 254 0.9 3.5 0.00 0.00 0.00 67 1017.1
20260901141518 87 114 0.0 2.6 0.00 0.00 0.00 69 1017.2
20260901140009 85 117 0.0 1.7 0.00 0.00 0.00 72 1017.0
20260901134509 83 246 0.0 2.6 0.00 0.00 0.00 74 1017.1
20260901133008 81 107 0.9 3.5 0.00 0.00 0.00 76 1017.3
20260901131503 80 109 0.0 1.7 0.00 0.00 0.00 77 1017.2
20260901130003 79 147 0.0 1.7 0.00 0.00 0.00 78 1016.9
20260901124601 79 108 0.0 0.9 0.00 0.00 0.00 79 1016.7
20260901123059 78 120 0.0 2.6 0.00 0.00 0.00 78 1016.6
20260901121558 78 126 0.0 1.7 0.00 0.00 0.00 78 1016.4
20260901120110 78 115 0.0 1.7 0.00 0.00 0.00 78 1016.3
20260901114553 78 104 0.0 0.0 0.00 0.00 0.00 77 1016.0
20260901113058 79 117 0.0 1.7 0.00 0.00 0.00 76 1015.7
20260901111557 79 107 0.0 2.6 0.00 0.00 0.00 75 1015.8
20260901110051 79 169 0.0 1.7 0.00 0.00 0.00 74 1015.6
20260901104548 79 141 0.0 1.7 0.00 0.00 0.00 74 1015.5
20260901103057 80 117 0.0 0.9 0.00 0.00 0.00 73 1015.6
20260901101544 80 238 0.0 0.9 0.00 0.00 0.00 72 1015.6
20260901100042 80 180 0.0 1.7 0.00 0.00 0.00 71 1015.6
20260901094547 81 210 0.0 1.7 0.00 0.00 0.00 70 1015.7
20260901093041 81 98 0.0 1.7 0.00 0.00 0.00 69 1015.8
20260901091538 81 122 0.0 2.6 0.00 0.00 0.00 68 1015.9
20260901090035 82 117 0.0 0.9 0.00 0.00 0.00 68 1015.6
20260901084534 82 166 0.0 1.7 0.00 0.00 0.00 67 1015.5
20260901083033 82 122 0.0 2.6 0.00 0.00 0.00 67 1015.4
20260901081531 82 116 0.0 1.7 0.00 0.00 0.00 67 1015.4
20260901080037 83 139 0.0 0.9 0.00 0.00 0.00 65 1015.4
20260901074528 83 149 0.0 2.6 0.00 0.00 0.00 64 1015.3
20260901073029 84 172 0.9 3.5 0.00 0.00 0.00 64 1015.3
20260901071527 84 205 0.9 3.5 0.00 0.00 0.00 63 1015.1
20260901070028 84 193 0.9 3.5 0.00 0.00 0.00 62 1015.2
20260901064529 83 115 0.0 4.3 0.00 0.00 0.00 63 1015.0
20260901063043 83 124 0.0 0.9 0.00 0.00 0.00 64 1015.1
20260901061523 83 113 0.0 0.9 0.00 0.00 0.00 63 1014.9
20260901060020 83 117 0.0 0.9 0.00 0.00 0.00 62 1014.7
20260901054518 84 117 0.0 1.7 0.00 0.00 0.00 61 1014.7
20260901053015 84 274 0.0 1.7 0.00 0.00 0.00 60 1014.7
20260901051514 84 103 0.0 1.7 0.00 0.00 0.00 59 1014.6
20260901050012 85 113 0.0 1.7 0.00 0.00 0.00 57 1014.5
20260901044510 85 134 0.0 1.7 0.00 0.00 0.00 56 1014.6
20260901043008 86 130 0.0 2.6 0.00 0.00 0.00 55 1014.3
20260901041507 86 130 0.0 2.6 0.00 0.00 0.00 54 1014.3
20260901040005 86 128 0.0 0.9 0.00 0.00 0.00 53 1014.4
20260901034511 86 114 0.0 1.7 0.00 0.00 0.00 53 1014.4
20260901033004 86 134 0.0 0.9 0.00 0.00 0.00 53 1014.5
20260901031507 87 120 0.0 0.9 0.00 0.00 0.00 53 1014.6
20260901030101 87 120 0.0 0.9 0.00 0.00 0.00 52 1014.5
20260901024557 88 126 0.0 0.9 0.00 0.00 0.00 51 1014.3
20260901023055 88 255 0.0 0.9 0.00 0.00 0.00 50 1014.3
20260901021554 89 117 0.0 0.9 0.00 0.00 0.00 49 1014.5
20260901020055 89 109 0.0 0.9 0.00 0.00 0.00 50 1014.6
20260901014548 0 0.0 0.0 0.00 0.00 0.00 1014.6
20260901013044 0 0.0 0.0 0.00 0.00 0.00 1014.5
20260901011541 0 0.0 0.0 0.00 0.00 0.00 1014.4
20260901010040 0 0.0 0.0 0.00 0.00 0.00 1014.2
20260901004531 0 0.0 0.0 0.00 0.00 0.00 1014.3
20260901003027 0 0.0 0.0 0.00 0.00 0.00 1014.1
20260901001522 0 0.0 0.0 0.00 0.00 0.00 1014.1
20260901000022 0 0.0 0.0 0.00 0.00 0.00 1014.2
20260831234514 0 0.0 0.0 0.00 0.00 0.00 1014.3